QFA423 YSSY-YMML

Flight info

Callsign QFA423
Flight time 1h 7m
Altitude 34000
Route WOL H65 LEECE Q29 ML
Aircraft B738/M-SDE2E3FGHIRWXY/LB1

Departure

Time 2026-05-06 23:08
Airport Sydney Kingsford Smith International Airport (YSSY)

Arrival

Time 2026-05-07 00:15
Airport Melbourne Airport (YMML)
Time Latitude Longitude Altitude Speed Heading
2026-05-06 22:29 -33.93095 151.17673 29 ft 0 kts 188°
2026-05-06 22:47 -33.93077 151.17677 29 ft 4 kts 194°
2026-05-06 22:48 -33.93052 151.17688 29 ft 4 kts 214°
2026-05-06 22:48 -33.93036 151.17707 29 ft 4 kts 274°
2026-05-06 22:48 -33.93037 151.17716 29 ft 1 kts 298°
2026-05-06 22:56 -33.93036 151.17713 29 ft 2 kts 298°
2026-05-06 22:56 -33.93020 151.17675 29 ft 9 kts 292°
2026-05-06 22:56 -33.93008 151.17583 29 ft 11 kts 259°
2026-05-06 22:56 -33.93062 151.17529 29 ft 10 kts 205°
2026-05-06 22:57 -33.93132 151.17527 29 ft 12 kts 167°
2026-05-06 22:57 -33.93217 151.17549 29 ft 13 kts 168°
2026-05-06 22:57 -33.93302 151.17571 29 ft 12 kts 168°
2026-05-06 22:57 -33.93387 151.17591 29 ft 13 kts 169°
2026-05-06 22:58 -33.93484 151.17584 29 ft 14 kts 171°
2026-05-06 22:58 -33.93580 151.17609 29 ft 14 kts 168°
2026-05-06 22:58 -33.93667 151.17649 29 ft 14 kts 150°
2026-05-06 22:58 -33.93768 151.17692 29 ft 18 kts 169°
2026-05-06 22:59 -33.93875 151.17768 29 ft 18 kts 152°
2026-05-06 22:59 -33.93995 151.17804 28 ft 17 kts 167°
2026-05-06 22:59 -33.94111 151.17834 28 ft 17 kts 168°
2026-05-06 22:59 -33.94224 151.17862 29 ft 16 kts 168°
2026-05-06 23:00 -33.94331 151.17890 29 ft 16 kts 167°
2026-05-06 23:00 -33.94436 151.17911 29 ft 15 kts 184°
2026-05-06 23:00 -33.94532 151.17882 29 ft 14 kts 169°
2026-05-06 23:00 -33.94634 151.17910 29 ft 16 kts 168°
2026-05-06 23:01 -33.94753 151.17941 29 ft 20 kts 167°
2026-05-06 23:01 -33.94901 151.17980 29 ft 23 kts 168°
2026-05-06 23:01 -33.95050 151.18018 29 ft 20 kts 168°
2026-05-06 23:01 -33.95160 151.18041 29 ft 12 kts 190°
2026-05-06 23:02 -33.95200 151.17957 29 ft 13 kts 257°
2026-05-06 23:02 -33.95220 151.17847 29 ft 15 kts 257°
2026-05-06 23:02 -33.95286 151.17768 28 ft 9 kts 199°
2026-05-06 23:02 -33.95331 151.17732 28 ft 9 kts 265°
2026-05-06 23:03 -33.95327 151.17650 28 ft 7 kts 276°
2026-05-06 23:03 -33.95336 151.17596 28 ft 7 kts 230°
2026-05-06 23:03 -33.95385 151.17592 28 ft 9 kts 169°
2026-05-06 23:03 -33.95475 151.17614 29 ft 17 kts 167°
2026-05-06 23:04 -33.95616 151.17651 29 ft 24 kts 168°
2026-05-06 23:04 -33.95799 151.17698 29 ft 29 kts 168°
2026-05-06 23:04 -33.95998 151.17750 29 ft 29 kts 168°
2026-05-06 23:04 -33.96186 151.17799 29 ft 27 kts 168°
2026-05-06 23:05 -33.96346 151.17840 29 ft 21 kts 168°
2026-05-06 23:05 -33.96435 151.17916 29 ft 15 kts 97°
2026-05-06 23:05 -33.96433 151.17939 29 ft 0 kts 82°
2026-05-06 23:06 -33.96433 151.17943 29 ft 2 kts 82°
2026-05-06 23:06 -33.96423 151.18009 29 ft 11 kts 80°
2026-05-06 23:07 -33.96382 151.18054 29 ft 9 kts 348°
2026-05-06 23:07 -33.96337 151.18042 29 ft 5 kts 348°
2026-05-06 23:07 -33.96272 151.18025 28 ft 28 kts 348°
2026-05-06 23:07 -33.95829 151.17909 27 ft 100 kts 348°
2026-05-06 23:08 -33.94945 151.17678 29 ft 157 kts 347°
2026-05-06 23:08 -33.93784 151.17367 333 ft 182 kts 347°
2026-05-06 23:08 -33.92508 151.17049 839 ft 199 kts 348°
2026-05-06 23:08 -33.91227 151.16357 1374 ft 210 kts 322°
2026-05-06 23:09 -33.90178 151.15022 1687 ft 229 kts 304°
2026-05-06 23:09 -33.89409 151.13251 2112 ft 250 kts 294°
2026-05-06 23:09 -33.88742 151.11295 2907 ft 253 kts 292°
2026-05-06 23:09 -33.88007 151.09371 3837 ft 254 kts 296°
2026-05-06 23:10 -33.87156 151.07504 4683 ft 257 kts 299°
2026-05-06 23:10 -33.86224 151.05652 5523 ft 259 kts 300°
2026-05-06 23:10 -33.85251 151.03800 6315 ft 263 kts 301°
2026-05-06 23:10 -33.84267 151.01930 7097 ft 266 kts 298°
2026-05-06 23:11 -33.83729 150.99811 7836 ft 269 kts 274°
2026-05-06 23:11 -33.84028 150.97597 8566 ft 273 kts 246°
2026-05-06 23:11 -33.85190 150.95772 9326 ft 281 kts 220°
2026-05-06 23:11 -33.86940 150.94689 10014 ft 290 kts 195°
2026-05-06 23:12 -33.89008 150.94525 10401 ft 311 kts 174°
2026-05-06 23:12 -33.91198 150.95115 10595 ft 336 kts 166°
2026-05-06 23:12 -33.93521 150.95926 10816 ft 356 kts 165°
2026-05-06 23:12 -33.95937 150.96752 11340 ft 365 kts 166°
2026-05-06 23:13 -33.98420 150.97418 11991 ft 367 kts 179°
2026-05-06 23:13 -34.00930 150.97039 12699 ft 364 kts 197°
2026-05-06 23:13 -34.03388 150.96254 13376 ft 369 kts 198°
2026-05-06 23:13 -34.05847 150.95429 14020 ft 374 kts 198°
2026-05-06 23:14 -34.08363 150.94581 14731 ft 377 kts 198°
2026-05-06 23:14 -34.10906 150.93731 15432 ft 380 kts 198°
2026-05-06 23:14 -34.13475 150.92881 16115 ft 384 kts 198°
2026-05-06 23:14 -34.16067 150.92032 16774 ft 388 kts 198°
2026-05-06 23:15 -34.18692 150.91177 17432 ft 392 kts 198°
2026-05-06 23:15 -34.21337 150.90318 18048 ft 396 kts 198°
2026-05-06 23:15 -34.24008 150.89452 18655 ft 399 kts 198°
2026-05-06 23:15 -34.26707 150.88577 19251 ft 403 kts 198°
2026-05-06 23:16 -34.29428 150.87694 19824 ft 407 kts 198°
2026-05-06 23:16 -34.32173 150.86802 20377 ft 410 kts 198°
2026-05-06 23:16 -34.34940 150.85902 20935 ft 414 kts 199°
2026-05-06 23:16 -34.37731 150.84994 21462 ft 417 kts 199°
2026-05-06 23:17 -34.40541 150.84079 21984 ft 420 kts 199°
2026-05-06 23:17 -34.43375 150.83156 22485 ft 423 kts 199°
2026-05-06 23:17 -34.46234 150.82223 22952 ft 427 kts 199°
2026-05-06 23:17 -34.49118 150.81283 23410 ft 430 kts 199°
2026-05-06 23:18 -34.51983 150.80347 23845 ft 433 kts 199°
2026-05-06 23:18 -34.54808 150.79108 24231 ft 430 kts 214°
2026-05-06 23:18 -34.57149 150.76925 24677 ft 422 kts 231°
2026-05-06 23:18 -34.58957 150.74148 25167 ft 419 kts 238°
2026-05-06 23:19 -34.60667 150.71265 25583 ft 421 kts 238°
2026-05-06 23:19 -34.62373 150.68356 25970 ft 424 kts 239°
2026-05-06 23:19 -34.64091 150.65432 26358 ft 427 kts 238°
2026-05-06 23:19 -34.65829 150.62495 26752 ft 429 kts 238°
2026-05-06 23:20 -34.67582 150.59550 27139 ft 431 kts 238°
2026-05-06 23:20 -34.69346 150.56600 27485 ft 433 kts 238°
2026-05-06 23:20 -34.71124 150.53630 27846 ft 435 kts 238°
2026-05-06 23:20 -34.72913 150.50645 28198 ft 437 kts 238°
2026-05-06 23:21 -34.74705 150.47655 28521 ft 439 kts 239°
2026-05-06 23:21 -34.76504 150.44651 28849 ft 440 kts 239°
2026-05-06 23:21 -34.78310 150.41631 29129 ft 443 kts 239°
2026-05-06 23:21 -34.80126 150.38588 29442 ft 444 kts 239°
2026-05-06 23:22 -34.81922 150.35579 29747 ft 445 kts 239°
2026-05-06 23:22 -34.83741 150.32531 30135 ft 444 kts 239°
2026-05-06 23:22 -34.85550 150.29496 30559 ft 442 kts 239°
2026-05-06 23:22 -34.87347 150.26478 31006 ft 439 kts 239°
2026-05-06 23:23 -34.89134 150.23475 31400 ft 438 kts 239°
2026-05-06 23:23 -34.90922 150.20467 31732 ft 438 kts 239°
2026-05-06 23:23 -34.92710 150.17455 32059 ft 437 kts 239°
2026-05-06 23:23 -34.94488 150.14458 32441 ft 435 kts 239°
2026-05-06 23:24 -34.96256 150.11476 32844 ft 433 kts 239°
2026-05-06 23:24 -34.98021 150.08496 33198 ft 432 kts 239°
2026-05-06 23:24 -34.99776 150.05527 33527 ft 431 kts 239°
2026-05-06 23:24 -35.01529 150.02562 33855 ft 430 kts 239°
2026-05-06 23:25 -35.03254 149.99642 34177 ft 429 kts 240°
2026-05-06 23:25 -35.04997 149.96689 34474 ft 429 kts 239°
2026-05-06 23:25 -35.06744 149.93728 34688 ft 430 kts 239°
2026-05-06 23:25 -35.08493 149.90764 34929 ft 430 kts 239°
2026-05-06 23:26 -35.10242 149.87802 35200 ft 430 kts 239°
2026-05-06 23:26 -35.11993 149.84835 35424 ft 430 kts 239°
2026-05-06 23:26 -35.13744 149.81862 35629 ft 431 kts 239°
2026-05-06 23:26 -35.15495 149.78883 35857 ft 431 kts 239°
2026-05-06 23:27 -35.17243 149.75909 36126 ft 430 kts 239°
2026-05-06 23:27 -35.18992 149.72932 36326 ft 431 kts 239°
2026-05-06 23:27 -35.20747 149.69943 36468 ft 434 kts 239°
2026-05-06 23:27 -35.22512 149.66934 36676 ft 434 kts 239°
2026-05-06 23:28 -35.24262 149.63951 37051 ft 429 kts 239°
2026-05-06 23:28 -35.25969 149.61039 37480 ft 424 kts 239°
2026-05-06 23:28 -35.27681 149.58115 37694 ft 423 kts 239°
2026-05-06 23:29 -35.31132 149.52198 37850 ft 428 kts 239°
2026-05-06 23:29 -35.32862 149.49231 38045 ft 428 kts 239°
2026-05-06 23:29 -35.34597 149.46253 38028 ft 431 kts 239°
2026-05-06 23:30 -35.38075 149.40283 38037 ft 428 kts 239°
2026-05-06 23:30 -35.41519 149.34363 38045 ft 425 kts 239°
2026-05-06 23:31 -35.44909 149.28521 38049 ft 422 kts 239°
2026-05-06 23:31 -35.48306 149.22654 38040 ft 421 kts 239°
2026-05-06 23:32 -35.51693 149.16794 38053 ft 421 kts 239°
2026-05-06 23:32 -35.55082 149.10920 38049 ft 422 kts 239°
2026-05-06 23:33 -35.58483 149.05020 38050 ft 424 kts 239°
2026-05-06 23:33 -35.61892 148.99092 38060 ft 426 kts 239°
2026-05-06 23:34 -35.65316 148.93133 38058 ft 427 kts 239°
2026-05-06 23:34 -35.68752 148.87144 38060 ft 429 kts 239°
2026-05-06 23:35 -35.72201 148.81119 38058 ft 431 kts 239°
2026-05-06 23:35 -35.75634 148.75109 38059 ft 432 kts 239°
2026-05-06 23:36 -35.79098 148.69034 38054 ft 433 kts 239°
2026-05-06 23:36 -35.82561 148.62953 38058 ft 434 kts 239°
2026-05-06 23:37 -35.86023 148.56864 38059 ft 433 kts 239°
2026-05-06 23:37 -35.89474 148.50776 38064 ft 433 kts 239°
2026-05-06 23:38 -35.92326 148.45711 38061 ft 432 kts 239°
2026-05-06 23:38 -35.95746 148.39620 38063 ft 431 kts 239°
2026-05-06 23:39 -35.99156 148.33539 38068 ft 430 kts 239°
2026-05-06 23:39 -36.02537 148.27501 38068 ft 429 kts 239°
2026-05-06 23:40 -36.05931 148.21430 38081 ft 429 kts 239°
2026-05-06 23:40 -36.09321 148.15353 38072 ft 429 kts 239°
2026-05-06 23:41 -36.12711 148.09270 38085 ft 430 kts 239°
2026-05-06 23:41 -36.16112 148.03183 38088 ft 430 kts 239°
2026-05-06 23:42 -36.19515 147.97088 38081 ft 430 kts 239°
2026-05-06 23:42 -36.22915 147.90983 38093 ft 430 kts 239°
2026-05-06 23:43 -36.26318 147.84858 38094 ft 432 kts 239°
2026-05-06 23:43 -36.29720 147.78727 38094 ft 432 kts 239°
2026-05-06 23:44 -36.33125 147.72582 38104 ft 432 kts 239°
2026-05-06 23:44 -36.36499 147.66467 38109 ft 432 kts 239°
2026-05-06 23:45 -36.39894 147.60301 38115 ft 432 kts 239°
2026-05-06 23:45 -36.43290 147.54121 38120 ft 433 kts 239°
2026-05-06 23:46 -36.46679 147.47943 38124 ft 433 kts 239°
2026-05-06 23:46 -36.50081 147.41730 38130 ft 434 kts 239°
2026-05-06 23:47 -36.53450 147.35568 38128 ft 434 kts 239°
2026-05-06 23:47 -36.56837 147.29361 38129 ft 433 kts 239°
2026-05-06 23:48 -36.60222 147.23149 38139 ft 433 kts 239°
2026-05-06 23:48 -36.63594 147.16943 38139 ft 433 kts 239°
2026-05-06 23:49 -36.66967 147.10726 38138 ft 433 kts 239°
2026-05-06 23:49 -36.70337 147.04507 38156 ft 433 kts 238°
2026-05-06 23:50 -36.73687 146.98320 38158 ft 433 kts 238°
2026-05-06 23:50 -36.78738 146.88980 38160 ft 433 kts 238°
2026-05-06 23:51 -36.82099 146.82752 38167 ft 433 kts 238°
2026-05-06 23:51 -36.85464 146.76499 38174 ft 433 kts 238°
2026-05-06 23:52 -36.88806 146.70277 38088 ft 426 kts 238°
2026-05-06 23:52 -36.90428 146.67256 37603 ft 423 kts 238°
2026-05-06 23:52 -36.92086 146.64162 36955 ft 425 kts 238°
2026-05-06 23:53 -36.93718 146.61112 36290 ft 428 kts 238°
2026-05-06 23:53 -36.95389 146.58009 35648 ft 431 kts 238°
2026-05-06 23:53 -36.97060 146.54882 35042 ft 434 kts 238°
2026-05-06 23:53 -36.98737 146.51765 34709 ft 430 kts 239°
2026-05-06 23:54 -37.00393 146.48686 34487 ft 420 kts 240°
2026-05-06 23:54 -37.01985 146.45634 34010 ft 417 kts 239°
2026-05-06 23:54 -37.03573 146.42593 33502 ft 415 kts 240°
2026-05-06 23:54 -37.05137 146.39549 33108 ft 414 kts 238°
2026-05-06 23:55 -37.06760 146.36594 32759 ft 411 kts 237°
2026-05-06 23:55 -37.08386 146.33676 32420 ft 405 kts 238°
2026-05-06 23:55 -37.09911 146.30769 31912 ft 406 kts 240°
2026-05-06 23:55 -37.11500 146.27805 31540 ft 401 kts 238°
2026-05-06 23:56 -37.13044 146.24966 31170 ft 398 kts 238°
2026-05-06 23:56 -37.14593 146.22057 30759 ft 397 kts 237°
2026-05-06 23:56 -37.16105 146.19257 30384 ft 390 kts 239°
2026-05-06 23:56 -37.17556 146.16365 29881 ft 389 kts 240°
2026-05-06 23:57 -37.19001 146.13514 29485 ft 384 kts 239°
2026-05-06 23:57 -37.20454 146.10699 28985 ft 383 kts 239°
2026-05-06 23:57 -37.21915 146.07957 28456 ft 374 kts 237°
2026-05-06 23:57 -37.23363 146.05260 27696 ft 371 kts 238°
2026-05-06 23:58 -37.24777 146.02552 26929 ft 368 kts 238°
2026-05-06 23:58 -37.26174 145.99871 26239 ft 366 kts 238°
2026-05-06 23:58 -37.27539 145.97259 25691 ft 360 kts 238°
2026-05-06 23:58 -37.28894 145.94658 25133 ft 352 kts 237°
2026-05-06 23:59 -37.30239 145.92112 24471 ft 348 kts 236°
2026-05-06 23:59 -37.31564 145.89581 23851 ft 344 kts 236°
2026-05-06 23:59 -37.32870 145.87088 23231 ft 340 kts 236°
2026-05-06 23:59 -37.34173 145.84610 22646 ft 336 kts 236°
2026-05-07 00:00 -37.35477 145.82184 22007 ft 333 kts 236°
2026-05-07 00:00 -37.36747 145.79770 21414 ft 330 kts 236°
2026-05-07 00:00 -37.37989 145.77377 20803 ft 325 kts 236°
2026-05-07 00:00 -37.39230 145.74996 20181 ft 324 kts 236°
2026-05-07 00:01 -37.40459 145.72658 19631 ft 319 kts 236°
2026-05-07 00:01 -37.41683 145.70337 19103 ft 316 kts 236°
2026-05-07 00:01 -37.42876 145.68085 18561 ft 311 kts 236°
2026-05-07 00:01 -37.44050 145.65802 17949 ft 310 kts 239°
2026-05-07 00:02 -37.44859 145.63301 17335 ft 311 kts 256°
2026-05-07 00:02 -37.45140 145.60603 16894 ft 311 kts 268°
2026-05-07 00:02 -37.45104 145.57884 16380 ft 307 kts 269°
2026-05-07 00:02 -37.45057 145.55205 15794 ft 306 kts 269°
2026-05-07 00:03 -37.45007 145.52584 15293 ft 301 kts 268°
2026-05-07 00:03 -37.44960 145.49960 14689 ft 299 kts 269°
2026-05-07 00:03 -37.44908 145.47348 14106 ft 298 kts 269°
2026-05-07 00:03 -37.44864 145.44760 13581 ft 294 kts 269°
2026-05-07 00:04 -37.44828 145.42193 13045 ft 291 kts 268°
2026-05-07 00:04 -37.44795 145.39670 12641 ft 284 kts 268°
2026-05-07 00:04 -37.44765 145.37229 12369 ft 273 kts 268°
2026-05-07 00:04 -37.44739 145.34873 11998 ft 267 kts 268°
2026-05-07 00:05 -37.44708 145.32548 11541 ft 264 kts 268°
2026-05-07 00:05 -37.44678 145.30239 11021 ft 264 kts 268°
2026-05-07 00:05 -37.44648 145.27931 10542 ft 263 kts 268°
2026-05-07 00:05 -37.44620 145.25647 10140 ft 264 kts 268°
2026-05-07 00:06 -37.44591 145.23342 9876 ft 262 kts 268°
2026-05-07 00:06 -37.44560 145.21061 9585 ft 261 kts 268°
2026-05-07 00:06 -37.44528 145.18776 9284 ft 260 kts 268°
2026-05-07 00:06 -37.44498 145.16512 8987 ft 256 kts 268°
2026-05-07 00:07 -37.44466 145.14282 8695 ft 252 kts 268°
2026-05-07 00:07 -37.44434 145.12070 8393 ft 254 kts 268°
2026-05-07 00:07 -37.44403 145.09845 8089 ft 255 kts 268°
2026-05-07 00:07 -37.44370 145.07596 7786 ft 259 kts 268°
2026-05-07 00:08 -37.44339 145.05332 7472 ft 259 kts 268°
2026-05-07 00:08 -37.44303 145.03060 7153 ft 259 kts 268°
2026-05-07 00:08 -37.44266 145.00803 6842 ft 258 kts 268°
2026-05-07 00:08 -37.44231 144.98550 6528 ft 258 kts 268°
2026-05-07 00:09 -37.44198 144.96287 6215 ft 258 kts 268°
2026-05-07 00:09 -37.44184 144.94034 5901 ft 256 kts 263°
2026-05-07 00:09 -37.44451 144.91841 5585 ft 253 kts 256°
2026-05-07 00:09 -37.44789 144.89703 5285 ft 252 kts 256°
2026-05-07 00:10 -37.45117 144.87513 4940 ft 248 kts 257°
2026-05-07 00:10 -37.45416 144.85441 4632 ft 240 kts 257°
2026-05-07 00:10 -37.45720 144.83390 4270 ft 234 kts 254°
2026-05-07 00:10 -37.46431 144.81675 4081 ft 219 kts 221°
2026-05-07 00:11 -37.47736 144.80788 3829 ft 212 kts 200°
2026-05-07 00:11 -37.49173 144.80470 3545 ft 210 kts 181°
2026-05-07 00:11 -37.50625 144.80706 3301 ft 209 kts 174°
2026-05-07 00:11 -37.52031 144.80995 3047 ft 199 kts 174°
2026-05-07 00:12 -37.53366 144.81261 2768 ft 189 kts 175°
2026-05-07 00:12 -37.54637 144.81500 2529 ft 179 kts 175°
2026-05-07 00:12 -37.55839 144.81723 2313 ft 170 kts 174°
2026-05-07 00:12 -37.56988 144.81939 2084 ft 165 kts 174°
2026-05-07 00:13 -37.58128 144.82150 1887 ft 166 kts 174°
2026-05-07 00:13 -37.59252 144.82360 1681 ft 161 kts 174°
2026-05-07 00:13 -37.60327 144.82561 1473 ft 152 kts 173°
2026-05-07 00:13 -37.61356 144.82753 1268 ft 148 kts 173°
2026-05-07 00:14 -37.62373 144.82942 1077 ft 148 kts 173°
2026-05-07 00:14 -37.63392 144.83132 874 ft 147 kts 172°
2026-05-07 00:14 -37.64386 144.83318 679 ft 146 kts 172°
2026-05-07 00:14 -37.65389 144.83504 478 ft 146 kts 173°
2026-05-07 00:15 -37.66386 144.83684 411 ft 140 kts 172°
2026-05-07 00:15 -37.67188 144.83839 379 ft 86 kts 172°
2026-05-07 00:15 -37.67614 144.83919 368 ft 47 kts 172°
2026-05-07 00:15 -37.67834 144.83980 358 ft 26 kts 148°
2026-05-07 00:16 -37.67874 144.84113 357 ft 11 kts 82°
2026-05-07 00:16 -37.67872 144.84128 360 ft 0 kts 81°
2026-05-07 00:16 -37.67872 144.84129 360 ft 0 kts 81°
2026-05-07 00:16 -37.67867 144.84162 363 ft 8 kts 81°
2026-05-07 00:17 -37.67853 144.84270 360 ft 16 kts 74°
2026-05-07 00:17 -37.67759 144.84370 366 ft 20 kts
2026-05-07 00:17 -37.67626 144.84349 371 ft 19 kts 352°
2026-05-07 00:17 -37.67499 144.84325 374 ft 18 kts 351°
2026-05-07 00:18 -37.67375 144.84302 377 ft 18 kts 352°
2026-05-07 00:18 -37.67241 144.84277 380 ft 22 kts 351°
2026-05-07 00:18 -37.67073 144.84245 383 ft 26 kts 352°
2026-05-07 00:18 -37.66878 144.84209 388 ft 30 kts 352°
2026-05-07 00:19 -37.66723 144.84202 392 ft 22 kts 35°
2026-05-07 00:19 -37.66679 144.84396 396 ft 26 kts 82°
2026-05-07 00:19 -37.66651 144.84635 399 ft 29 kts 82°
2026-05-07 00:19 -37.66588 144.84799 401 ft 16 kts 30°
2026-05-07 00:20 -37.66542 144.84906 405 ft 12 kts 82°
2026-05-07 00:20 -37.66534 144.84996 405 ft 10 kts 98°
2026-05-07 00:20 -37.66582 144.85005 403 ft 9 kts 248°
2026-05-07 00:20 -37.66565 144.84959 404 ft 7 kts 14°
2026-05-07 00:21 -37.66541 144.85003 403 ft 6 kts 79°
2026-05-07 00:21 -37.66565 144.85051 400 ft 7 kts 146°
2026-05-07 00:21 -37.66621 144.85067 398 ft 9 kts 175°
2026-05-07 00:21 -37.66692 144.85080 399 ft 11 kts 172°
2026-05-07 00:22 -37.66762 144.85088 398 ft 7 kts 179°
2026-05-07 00:22 -37.66785 144.85112 397 ft 5 kts 88°
2026-05-07 00:22 -37.66781 144.85136 397 ft 2 kts 81°
2026-05-07 00:22 -37.66779 144.85154 394 ft 2 kts 81°
2026-05-07 00:23 -37.66778 144.85161 395 ft 0 kts 81°